STARLINK-33750, 63513

Orbit data source: Space-Track

STARLINK-33750, 63513 is a payload satellite owned by SpaceX/Seattle (US) in LEO that was launched on Mon, 07 Apr 2025 UTC via an FALCON 9 launch vehicle from the Air Force Western Test Range (AFWTR). Payload-class satellites include a variety of spacecraft equipped with specific instruments for various scientific and technological missions. These include communications satellites like Starlink; space stations such as the ISS; scientific satellites like the Hubble; Earth observation satellites from companies like Planet Labs, Umbra, and HawkEye 360; GPS; miniature CubeSats for education and research; and military/defense satellites.

Loading next visibility...
Identifier
63513, 2025-071W
Orbit
LEO
Country
Flag of USUS
Related business
Manufacturer
SpaceX/Seattle
Mission
Operational Commercial Communications
Bus & Motor
STARLINK V2MO, Unknown motor
Mass
575 kg wet, ~530 kg dry
Launch date (UTC)
2025-04-07 (8 months ago)
Launch vehicle
FALCON 9
Launch site
Air Force Western Test Range (AFWTR)
Object type
Payload
Rocket body
Debris
Shape & HBR
Box + 2 Pan, 17.7 m
Radar Cross Section
36.964 m², Large (>1 m²)

Expand to show TLE details & history
Last TLE update: 6 hours ago

TLE from 6 hours ago
0 STARLINK-33750
1 63513U 25071W   25342.81439454  .00027481  00000-0  93662-3 0  9998
2 63513  53.1583 202.1932 0001562  88.2023 271.9157 15.30197527 38835
Epoch: 2025-12-08T19:32Z
TLE epoch observation values (Epoch: 2025-12-08T19:32:43.688Z)
Latitude
0.00002°
Longitude
-168.79685°
Altitude
476.086 km
Speed
7.629 km/s
True Right ascension
13h 28m 46s
True Declination
0° 00' 00"
Sunlit
Object was in daylight at epoch
Visualization orbit readout
Latitude
Unknown
Longitude
Unknown
Altitude
Unknown
Speed
Unknown
Apparent Right ascension
Unknown
Apparent Declination
Unknown
Sunlit
N/A
Visualization observer readout
Local Sidereal Time
23:17:33
Azimuth
Unknown
Elevation
Unknown
Doppler factor
Unknown
Orbital elements
Apogee altitude
476.55 km
Perigee altitude
474.409 km
Semi-major axis
6,853.616 km
Eccentricity
0.00016
Inclination
53.1583°
RAAN
202.1932°
Arg. of periapsis
88.2023°
True anomaly
271.89781°
Mean anomaly
271.9157°
Eccentric anomaly
271.90676°
Mean motion
3.82528 °/min
Orbital period
94.11 mins
BSTAR
0.00093662
Loading maneuver chart data...
Computing Atmospheric mass density...
Loading historical data...
Loading historical data...
Loading historical data...
Loading historical data...
Loading historical data...
Loading historical data...
Loading historical data...

Documentation

Showing up to 5 results
|